contact:dominique.lefevre@mio.osupytheas.fr, maurice.libes@osupytheas.fr, didier.mallarino@osupytheas.fr
Project:EMSO http://www.emso-fr.org/EMSO-France
Depth: 2436.0 m
Title:EMSO Ligure Ouest : Data MII capteur MICROCAT
DateTime_Computer,Latitude,Longitude,Temperature,Conductivity,Pressure,DateTime_Instrument
DateTime_Computer,Latitude,Longitude,degC,S m-1,dbar,DateTime_Instrument
2021-04-02T13:07:34Z,42.805,6.029,13.3000,4.60075,2470.203,2021-4-02T15:08:42Z
2021-04-02T13:10:37Z,42.805,6.029,13.3007,4.60051,2470.18,2021-4-02T15:11:45Z
2021-04-02T13:20:50Z,42.805,6.029,13.3001,4.60078,2470.24,2021-4-02T15:21:58Z
2021-04-02T13:23:53Z,42.805,6.029,13.3007,4.60065,2470.217,2021-4-02T15:25:01Z
2021-04-02T13:26:56Z,42.805,6.029,13.3004,4.60095,2470.194,2021-4-02T15:28:04Z
2021-04-02T13:29:59Z,42.805,6.029,13.3011,4.60112,2470.194,2021-4-02T15:31:07Z
2021-04-02T13:33:03Z,42.805,6.029,13.3009,4.60150,2470.18,2021-4-02T15:34:10Z
2021-04-02T13:36:06Z,42.805,6.029,13.3009,4.60119,2470.156,2021-4-02T15:37:13Z
2021-04-02T13:39:09Z,42.805,6.029,13.3015,4.60093,2470.194,2021-4-02T15:40:16Z
2021-04-02T13:42:12Z,42.805,6.029,13.3028,4.60081,2470.171,2021-4-02T15:43:19Z
2021-04-02T13:45:15Z,42.805,6.029,13.3011,4.60053,2470.147,2021-4-02T15:46:23Z
2021-04-02T13:48:18Z,42.805,6.029,13.3014,4.60098,2470.147,2021-4-02T15:49:26Z
2021-04-02T13:51:21Z,42.805,6.029,13.2999,4.60097,2470.18,2021-4-02T15:52:29Z
2021-04-02T13:54:24Z,42.805,6.029,13.3008,4.60111,2470.133,2021-4-02T15:55:32Z
2021-04-02T13:57:28Z,42.805,6.029,13.2996,4.60119,2470.171,2021-4-02T15:58:35Z
2021-04-02T14:00:31Z,42.805,6.029,13.3012,4.60119,2470.171,2021-4-02T16:01:38Z
2021-04-02T14:03:34Z,42.805,6.029,13.3014,4.60097,2470.18,2021-4-02T16:04:41Z
2021-04-02T14:06:37Z,42.805,6.029,13.3002,4.60060,2470.156,2021-4-02T16:07:44Z
2021-04-02T14:09:40Z,42.805,6.029,13.3036,4.60077,2470.11,2021-4-02T16:10:48Z
2021-04-02T14:12:43Z,42.805,6.029,13.3032,4.60077,2470.133,2021-4-02T16:13:51Z
2021-04-02T14:15:46Z,42.805,6.029,13.3024,4.60067,2470.147,2021-4-02T16:16:54Z
2021-04-02T14:18:49Z,42.805,6.029,13.3024,4.60087,2470.156,2021-4-02T16:19:57Z
2021-04-02T14:21:52Z,42.805,6.029,13.3011,4.60085,2470.171,2021-4-02T16:23:00Z
2021-04-02T14:24:56Z,42.805,6.029,13.3026,4.60069,2470.156,2021-4-02T16:26:03Z
2021-04-02T14:27:59Z,42.805,6.029,13.3036,4.60026,2470.156,2021-4-02T16:29:06Z
2021-04-02T14:31:02Z,42.805,6.029,13.3067,4.60049,2470.11,2021-4-02T16:32:09Z
2021-04-02T14:34:05Z,42.805,6.029,13.3033,4.60072,2470.171,2021-4-02T16:35:13Z
2021-04-02T14:37:08Z,42.805,6.029,13.3021,4.60081,2470.133,2021-4-02T16:38:16Z
2021-04-02T14:40:11Z,42.805,6.029,13.3035,4.60052,2470.124,2021-4-02T16:41:19Z
2021-04-02T14:43:14Z,42.805,6.029,13.3037,4.60060,2470.11,2021-4-02T16:44:22Z
2021-04-02T14:46:17Z,42.805,6.029,13.3042,4.60070,2470.147,2021-4-02T16:47:25Z
2021-04-02T14:49:21Z,42.805,6.029,13.3055,4.60044,2470.124,2021-4-02T16:50:28Z
2021-04-02T14:52:24Z,42.805,6.029,13.3063,4.60058,2470.171,2021-4-02T16:53:31Z
2021-04-02T14:55:27Z,42.805,6.029,13.3051,4.60097,2470.147,2021-4-02T16:56:34Z
2021-04-02T14:58:30Z,42.805,6.029,13.3057,4.60075,2470.147,2021-4-02T16:59:37Z
2021-04-02T15:01:33Z,42.805,6.029,13.3056,4.60031,2470.133,2021-4-02T17:02:41Z
2021-04-02T15:04:36Z,42.805,6.029,13.3044,4.60029,2470.147,2021-4-02T17:05:44Z
2021-04-02T15:07:39Z,42.805,6.029,13.3042,4.60052,2470.147,2021-4-02T17:08:47Z
2021-04-02T15:10:42Z,42.805,6.029,13.3032,4.60047,2470.133,2021-4-02T17:11:50Z
2021-04-02T15:13:46Z,42.805,6.029,13.3031,4.60050,2470.1,2021-4-02T17:14:53Z
2021-04-02T15:16:49Z,42.805,6.029,13.3044,4.60085,2470.11,2021-4-02T17:17:56Z
2021-04-02T15:19:52Z,42.805,6.029,13.3047,4.60063,2470.11,2021-4-02T17:20:59Z
2021-04-02T15:22:55Z,42.805,6.029,13.3056,4.60042,2470.133,2021-4-02T17:24:03Z
2021-04-02T15:25:58Z,42.805,6.029,13.3050,4.60051,2470.147,2021-4-02T17:27:06Z
2021-04-02T15:29:01Z,42.805,6.029,13.3017,4.60014,2470.124,2021-4-02T17:30:09Z
2021-04-02T15:32:04Z,42.805,6.029,13.3048,4.60052,2470.1,2021-4-02T17:33:12Z
2021-04-02T15:35:07Z,42.805,6.029,13.3012,4.60073,2470.147,2021-4-02T17:36:15Z
2021-04-02T15:38:11Z,42.805,6.029,13.3016,4.60024,2470.156,2021-4-02T17:39:18Z
2021-04-02T15:41:14Z,42.805,6.029,13.3011,4.60049,2470.133,2021-4-02T17:42:21Z
2021-04-02T15:44:17Z,42.805,6.029,13.3033,4.60062,2470.11,2021-4-02T17:45:24Z
2021-04-02T15:47:20Z,42.805,6.029,13.3049,4.60040,2470.147,2021-4-02T17:48:27Z
2021-04-02T15:50:23Z,42.805,6.029,13.3049,4.60063,2470.11,2021-4-02T17:51:31Z
2021-04-02T15:53:26Z,42.805,6.029,13.3048,4.60029,2470.11,2021-4-02T17:54:34Z
2021-04-02T15:56:29Z,42.805,6.029,13.3023,4.60052,2470.133,2021-4-02T17:57:37Z
2021-04-02T15:59:32Z,42.805,6.029,13.3053,4.60034,2470.087,2021-4-02T18:00:40Z
2021-04-02T16:02:36Z,42.805,6.029,13.3054,4.60058,2470.11,2021-4-02T18:03:43Z
2021-04-02T16:05:39Z,42.805,6.029,13.3041,4.60077,2470.11,2021-4-02T18:06:46Z
2021-04-02T16:08:42Z,42.805,6.029,13.3056,4.60061,2470.087,2021-4-02T18:09:49Z
2021-04-02T16:11:45Z,42.805,6.029,13.3058,4.60072,2470.1,2021-4-02T18:12:52Z
2021-04-02T16:14:48Z,42.805,6.029,13.3047,4.60040,2470.087,2021-4-02T18:15:56Z
2021-04-02T16:17:51Z,42.805,6.029,13.3022,4.60103,2470.124,2021-4-02T18:18:59Z
2021-04-02T16:20:54Z,42.805,6.029,13.3036,4.60079,2470.1,2021-4-02T18:22:02Z
2021-04-02T16:23:57Z,42.805,6.029,13.3051,4.60049,2470.11,2021-4-02T18:25:05Z
2021-04-02T16:27:01Z,42.805,6.029,13.3049,4.60045,2470.077,2021-4-02T18:28:08Z
2021-04-02T16:30:04Z,42.805,6.029,13.3030,4.60077,2470.124,2021-4-02T18:31:11Z
2021-04-02T16:33:07Z,42.805,6.029,13.3023,4.60081,2470.1,2021-4-02T18:34:14Z
2021-04-02T16:36:10Z,42.805,6.029,13.3048,4.60052,2470.133,2021-4-02T18:37:17Z
2021-04-02T16:39:13Z,42.805,6.029,13.3037,4.60022,2470.087,2021-4-02T18:40:21Z
2021-04-02T16:42:16Z,42.805,6.029,13.3036,4.60053,2470.087,2021-4-02T18:43:24Z
2021-04-02T16:45:19Z,42.805,6.029,13.3031,4.60080,2470.1,2021-4-02T18:46:27Z
2021-04-02T16:48:22Z,42.805,6.029,13.3053,4.60081,2470.087,2021-4-02T18:49:30Z
2021-04-02T16:51:25Z,42.805,6.029,13.3051,4.60072,2470.077,2021-4-02T18:52:33Z
2021-04-02T16:54:29Z,42.805,6.029,13.3037,4.60057,2470.1,2021-4-02T18:55:36Z
2021-04-02T16:57:32Z,42.805,6.029,13.3039,4.60044,2470.087,2021-4-02T18:58:39Z
2021-04-02T17:00:35Z,42.805,6.029,13.3051,4.60073,2470.11,2021-4-02T19:01:42Z
2021-04-02T17:03:38Z,42.805,6.029,13.3046,4.60066,2470.124,2021-4-02T19:04:46Z
2021-04-02T17:06:41Z,42.805,6.029,13.3058,4.60056,2470.124,2021-4-02T19:07:49Z
2021-04-02T17:09:44Z,42.805,6.029,13.2998,4.60041,2470.11,2021-4-02T19:10:52Z
2021-04-02T17:12:47Z,42.805,6.029,13.3039,4.60026,2470.087,2021-4-02T19:13:55Z
2021-04-02T17:15:50Z,42.805,6.029,13.3046,4.60046,2470.11,2021-4-02T19:16:58Z
2021-04-02T17:18:54Z,42.805,6.029,13.3042,4.60063,2470.124,2021-4-02T19:20:01Z
2021-04-02T17:21:57Z,42.805,6.029,13.3043,4.60091,2470.063,2021-4-02T19:23:04Z
2021-04-02T17:25:00Z,42.805,6.029,13.3058,4.60095,2470.133,2021-4-02T19:26:07Z
2021-04-02T17:28:03Z,42.805,6.029,13.3063,4.60069,2470.11,2021-4-02T19:29:11Z
2021-04-02T17:31:06Z,42.805,6.029,13.3032,4.60044,2470.124,2021-4-02T19:32:14Z
2021-04-02T17:34:09Z,42.805,6.029,13.3067,4.60068,2470.124,2021-4-02T19:35:17Z
2021-04-02T17:37:12Z,42.805,6.029,13.3058,4.60044,2470.147,2021-4-02T19:38:20Z
2021-04-02T17:40:15Z,42.805,6.029,13.3072,4.60013,2470.124,2021-4-02T19:41:23Z
2021-04-02T17:43:19Z,42.805,6.029,13.3038,4.60074,2470.147,2021-4-02T19:44:26Z
2021-04-02T17:46:22Z,42.805,6.029,13.3046,4.60068,2470.11,2021-4-02T19:47:29Z
2021-04-02T17:49:25Z,42.805,6.029,13.3057,4.60049,2470.11,2021-4-02T19:50:32Z
2021-04-02T17:52:28Z,42.805,6.029,13.3061,4.60049,2470.124,2021-4-02T19:53:36Z
2021-04-02T17:55:31Z,42.805,6.029,13.3046,4.60062,2470.1,2021-4-02T19:56:39Z
2021-04-02T17:58:34Z,42.805,6.029,13.3017,4.60044,2470.124,2021-4-02T19:59:42Z
2021-04-02T18:01:37Z,42.805,6.029,13.3036,4.60019,2470.1,2021-4-02T20:02:45Z
2021-04-02T18:04:40Z,42.805,6.029,13.3042,4.60042,2470.11,2021-4-02T20:05:48Z
2021-04-02T18:07:44Z,42.805,6.029,13.3035,4.60087,2470.124,2021-4-02T20:08:51Z
2021-04-02T18:10:47Z,42.805,6.029,13.3050,4.60095,2470.124,2021-4-02T20:11:54Z
2021-04-02T18:13:50Z,42.805,6.029,13.3056,4.60021,2470.11,2021-4-02T20:14:57Z
2021-04-02T18:16:53Z,42.805,6.029,13.3059,4.60052,2470.11,2021-4-02T20:18:00Z
2021-04-02T18:19:56Z,42.805,6.029,13.3061,4.60052,2470.124,2021-4-02T20:21:04Z
2021-04-02T18:22:59Z,42.805,6.029,13.3053,4.60029,2470.124,2021-4-02T20:24:07Z
2021-04-02T18:26:02Z,42.805,6.029,13.3044,4.60046,2470.133,2021-4-02T20:27:10Z
2021-04-02T18:29:05Z,42.805,6.029,13.3037,4.60042,2470.11,2021-4-02T20:30:13Z
2021-04-02T18:32:09Z,42.805,6.029,13.3043,4.60027,2470.147,2021-4-02T20:33:16Z
2021-04-02T18:35:12Z,42.805,6.029,13.3038,4.60020,2470.147,2021-4-02T20:36:19Z
2021-04-02T18:38:15Z,42.805,6.029,13.3039,4.60033,2470.11,2021-4-02T20:39:22Z
2021-04-02T18:41:18Z,42.805,6.029,13.3035,4.60068,2470.133,2021-4-02T20:42:25Z
2021-04-02T18:44:21Z,42.805,6.029,13.3044,4.60024,2470.124,2021-4-02T20:45:29Z
2021-04-02T18:47:24Z,42.805,6.029,13.3009,4.60034,2470.133,2021-4-02T20:48:32Z
2021-04-02T18:50:27Z,42.805,6.029,13.3009,4.60031,2470.147,2021-4-02T20:51:35Z
2021-04-02T18:53:30Z,42.805,6.029,13.3030,4.60051,2470.147,2021-4-02T20:54:38Z
2021-04-02T18:56:34Z,42.805,6.029,13.3061,4.60033,2470.124,2021-4-02T20:57:41Z
2021-04-02T18:59:37Z,42.805,6.029,13.3034,4.60011,2470.124,2021-4-02T21:00:44Z
2021-04-02T19:02:40Z,42.805,6.029,13.3031,4.60044,2470.133,2021-4-02T21:03:47Z
2021-04-02T19:05:43Z,42.805,6.029,13.3036,4.60046,2470.171,2021-4-02T21:06:50Z
2021-04-02T19:08:46Z,42.805,6.029,13.3040,4.60044,2470.133,2021-4-02T21:09:54Z
2021-04-02T19:11:49Z,42.805,6.029,13.3040,4.60011,2470.156,2021-4-02T21:12:57Z
2021-04-02T19:14:52Z,42.805,6.029,13.3048,4.60043,2470.156,2021-4-02T21:16:00Z
2021-04-02T19:17:55Z,42.805,6.029,13.3055,4.60068,2470.18,2021-4-02T21:19:03Z
2021-04-02T19:20:58Z,42.805,6.029,13.3045,4.60032,2470.171,2021-4-02T21:22:06Z
2021-04-02T19:24:02Z,42.805,6.029,13.3041,4.60039,2470.194,2021-4-02T21:25:09Z
2021-04-02T19:27:05Z,42.805,6.029,13.3029,4.60019,2470.171,2021-4-02T21:28:12Z
2021-04-02T19:30:08Z,42.805,6.029,13.3039,4.60026,2470.194,2021-4-02T21:31:15Z
2021-04-02T19:33:11Z,42.805,6.029,13.3004,4.60023,2470.203,2021-4-02T21:34:19Z
2021-04-02T19:36:14Z,42.805,6.029,13.3037,4.60048,2470.203,2021-4-02T21:37:22Z
2021-04-02T19:39:17Z,42.805,6.029,13.3023,4.60044,2470.194,2021-4-02T21:40:25Z
2021-04-02T19:42:20Z,42.805,6.029,13.3015,4.60035,2470.24,2021-4-02T21:43:28Z
2021-04-02T19:45:24Z,42.805,6.029,13.3017,4.60074,2470.18,2021-4-02T21:46:31Z
2021-04-02T19:48:27Z,42.805,6.029,13.2998,4.60057,2470.18,2021-4-02T21:49:34Z
2021-04-02T19:51:30Z,42.805,6.029,13.3020,4.60049,2470.171,2021-4-02T21:52:37Z
2021-04-02T19:54:33Z,42.805,6.029,13.3015,4.60013,2470.203,2021-4-02T21:55:40Z
2021-04-02T19:57:36Z,42.805,6.029,13.3011,4.60039,2470.194,2021-4-02T21:58:44Z
2021-04-02T20:00:39Z,42.805,6.029,13.3014,4.60021,2470.203,2021-4-02T22:01:47Z
2021-04-02T20:03:42Z,42.805,6.029,13.3063,4.60038,2470.24,2021-4-02T22:04:50Z
2021-04-02T20:06:45Z,42.805,6.029,13.3005,4.60014,2470.18,2021-4-02T22:07:53Z
2021-04-02T20:09:48Z,42.805,6.029,13.3041,4.60016,2470.203,2021-4-02T22:10:56Z
2021-04-02T20:12:52Z,42.805,6.029,13.3034,4.60024,2470.203,2021-4-02T22:13:59Z
2021-04-02T20:15:55Z,42.805,6.029,13.3029,4.60037,2470.217,2021-4-02T22:17:02Z
2021-04-02T20:18:58Z,42.805,6.029,13.3027,4.60040,2470.203,2021-4-02T22:20:05Z
2021-04-02T20:22:01Z,42.805,6.029,13.3026,4.60059,2470.203,2021-4-02T22:23:09Z
2021-04-02T20:25:04Z,42.805,6.029,13.3028,4.60049,2470.227,2021-4-02T22:26:12Z
2021-04-02T20:28:07Z,42.805,6.029,13.3024,4.60026,2470.203,2021-4-02T22:29:15Z
2021-04-02T20:31:10Z,42.805,6.029,13.3012,4.60026,2470.217,2021-4-02T22:32:18Z
2021-04-02T20:34:13Z,42.805,6.029,13.3026,4.60036,2470.203,2021-4-02T22:35:21Z
2021-04-02T20:37:17Z,42.805,6.029,13.3037,4.60046,2470.217,2021-4-02T22:38:24Z
2021-04-02T20:40:20Z,42.805,6.029,13.3027,4.60031,2470.264,2021-4-02T22:41:27Z
2021-04-02T20:43:23Z,42.805,6.029,13.3020,4.60042,2470.25,2021-4-02T22:44:30Z
2021-04-02T20:46:26Z,42.805,6.029,13.3036,4.60033,2470.24,2021-4-02T22:47:34Z
2021-04-02T20:49:29Z,42.805,6.029,13.3054,4.60043,2470.227,2021-4-02T22:50:37Z
2021-04-02T20:52:32Z,42.805,6.029,13.3047,4.60058,2470.25,2021-4-02T22:53:40Z
2021-04-02T20:55:35Z,42.805,6.029,13.3053,4.60062,2470.273,2021-4-02T22:56:43Z
2021-04-02T20:58:38Z,42.805,6.029,13.3026,4.60060,2470.264,2021-4-02T22:59:46Z
2021-04-02T21:01:42Z,42.805,6.029,13.3056,4.60041,2470.264,2021-4-02T23:02:49Z
2021-04-02T21:04:45Z,42.805,6.029,13.3070,4.60049,2470.264,2021-4-02T23:05:52Z
2021-04-02T21:07:48Z,42.805,6.029,13.3064,4.60079,2470.273,2021-4-02T23:08:55Z
2021-04-02T21:10:51Z,42.805,6.029,13.3048,4.60038,2470.25,2021-4-02T23:11:58Z
2021-04-02T21:13:54Z,42.805,6.029,13.3042,4.60031,2470.287,2021-4-02T23:15:02Z
2021-04-02T21:16:57Z,42.805,6.029,13.3012,4.60067,2470.287,2021-4-02T23:18:05Z
2021-04-02T21:20:00Z,42.805,6.029,13.3038,4.60018,2470.264,2021-4-02T23:21:08Z
2021-04-02T21:23:03Z,42.805,6.029,13.3030,4.60014,2470.287,2021-4-02T23:24:11Z
2021-04-02T21:26:07Z,42.805,6.029,13.3024,4.60007,2470.31,2021-4-02T23:27:14Z
2021-04-02T21:29:10Z,42.805,6.029,13.3019,4.60018,2470.273,2021-4-02T23:30:17Z
2021-04-02T21:32:13Z,42.805,6.029,13.3017,4.60028,2470.287,2021-4-02T23:33:20Z
2021-04-02T21:35:16Z,42.805,6.029,13.3059,4.60014,2470.31,2021-4-02T23:36:23Z
2021-04-02T21:38:19Z,42.805,6.029,13.3021,4.60040,2470.297,2021-4-02T23:39:27Z
2021-04-02T21:41:22Z,42.805,6.029,13.3043,4.60008,2470.297,2021-4-02T23:42:30Z
2021-04-02T21:44:25Z,42.805,6.029,13.3033,4.60015,2470.31,2021-4-02T23:45:33Z
2021-04-02T21:47:28Z,42.805,6.029,13.3029,4.60019,2470.31,2021-4-02T23:48:36Z
2021-04-02T21:50:32Z,42.805,6.029,13.3009,4.60032,2470.273,2021-4-02T23:51:39Z
2021-04-02T21:53:35Z,42.805,6.029,13.3029,4.60036,2470.334,2021-4-02T23:54:42Z
2021-04-02T21:56:38Z,42.805,6.029,13.3038,4.60017,2470.31,2021-4-02T23:57:45Z
2021-04-02T21:59:41Z,42.805,6.029,13.3011,4.60056,2470.273,2021-4-03T00:00:48Z
2021-04-02T22:02:44Z,42.805,6.029,13.3019,4.60052,2470.273,2021-4-03T00:03:52Z
2021-04-02T22:05:47Z,42.805,6.029,13.3046,4.60029,2470.273,2021-4-03T00:06:55Z
2021-04-02T22:08:50Z,42.805,6.029,13.3034,4.60011,2470.32,2021-4-03T00:09:58Z
2021-04-02T22:11:53Z,42.805,6.029,13.3013,4.60016,2470.287,2021-4-03T00:13:01Z
2021-04-02T22:14:56Z,42.805,6.029,13.3023,4.60021,2470.297,2021-4-03T00:16:04Z
2021-04-02T22:18:00Z,42.805,6.029,13.3024,4.60014,2470.31,2021-4-03T00:19:07Z
2021-04-02T22:21:03Z,42.805,6.029,13.3043,4.60042,2470.297,2021-4-03T00:22:10Z
2021-04-02T22:24:06Z,42.805,6.029,13.3036,4.60016,2470.273,2021-4-03T00:25:13Z
2021-04-02T22:27:09Z,42.805,6.029,13.3026,4.60022,2470.287,2021-4-03T00:28:17Z
2021-04-02T22:30:12Z,42.805,6.029,13.3039,4.60026,2470.297,2021-4-03T00:31:20Z
2021-04-02T22:33:15Z,42.805,6.029,13.3049,4.60033,2470.264,2021-4-03T00:34:23Z
2021-04-02T22:36:18Z,42.805,6.029,13.3061,4.60040,2470.31,2021-4-03T00:37:26Z
2021-04-02T22:39:21Z,42.805,6.029,13.3037,4.60028,2470.273,2021-4-03T00:40:29Z
2021-04-02T22:42:25Z,42.805,6.029,13.3041,4.60029,2470.287,2021-4-03T00:43:32Z
2021-04-02T22:45:28Z,42.805,6.029,13.3042,4.60028,2470.31,2021-4-03T00:46:35Z
2021-04-02T22:48:31Z,42.805,6.029,13.3039,4.60039,2470.334,2021-4-03T00:49:38Z
2021-04-02T22:51:34Z,42.805,6.029,13.3034,4.60034,2470.31,2021-4-03T00:52:42Z
2021-04-02T22:54:37Z,42.805,6.029,13.3034,4.60034,2470.287,2021-4-03T00:55:45Z
2021-04-02T22:57:40Z,42.805,6.029,13.3051,4.60034,2470.31,2021-4-03T00:58:48Z
2021-04-02T23:00:43Z,42.805,6.029,13.3062,4.60023,2470.31,2021-4-03T01:01:51Z
2021-04-02T23:03:46Z,42.805,6.029,13.3051,4.60034,2470.287,2021-4-03T01:04:54Z
2021-04-02T23:06:50Z,42.805,6.029,13.3048,4.60048,2470.31,2021-4-03T01:07:57Z
2021-04-02T23:09:53Z,42.805,6.029,13.3047,4.60027,2470.297,2021-4-03T01:11:00Z
2021-04-02T23:12:56Z,42.805,6.029,13.3031,4.60025,2470.273,2021-4-03T01:14:03Z
2021-04-02T23:15:59Z,42.805,6.029,13.3035,4.60035,2470.31,2021-4-03T01:17:06Z
2021-04-02T23:19:02Z,42.805,6.029,13.3036,4.60036,2470.273,2021-4-03T01:20:10Z
2021-04-02T23:22:05Z,42.805,6.029,13.3054,4.60033,2470.32,2021-4-03T01:23:13Z
2021-04-02T23:25:08Z,42.805,6.029,13.3046,4.60020,2470.297,2021-4-03T01:26:16Z
2021-04-02T23:28:11Z,42.805,6.029,13.3041,4.60019,2470.297,2021-4-03T01:29:19Z
2021-04-02T23:31:14Z,42.805,6.029,13.3041,4.60046,2470.287,2021-4-03T01:32:22Z
2021-04-02T23:34:18Z,42.805,6.029,13.3051,4.60029,2470.287,2021-4-03T01:35:25Z
2021-04-02T23:37:21Z,42.805,6.029,13.3040,4.60031,2470.31,2021-4-03T01:38:28Z
2021-04-02T23:40:24Z,42.805,6.029,13.3041,4.60026,2470.31,2021-4-03T01:41:31Z
2021-04-02T23:43:27Z,42.805,6.029,13.3051,4.60014,2470.273,2021-4-03T01:44:34Z
2021-04-02T23:46:30Z,42.805,6.029,13.3031,4.60033,2470.32,2021-4-03T01:47:38Z
2021-04-02T23:49:33Z,42.805,6.029,13.3062,4.60014,2470.287,2021-4-03T01:50:41Z
2021-04-02T23:52:36Z,42.805,6.029,13.3029,4.60026,2470.264,2021-4-03T01:53:44Z
2021-04-02T23:55:39Z,42.805,6.029,13.3027,4.60016,2470.297,2021-4-03T01:56:47Z
2021-04-02T23:58:42Z,42.805,6.029,13.3031,4.60031,2470.334,2021-4-03T01:59:50Z
